BWA1724 TTPP-TTCP

Flight info

Callsign BWA1724
Flight time 0h 14m
Altitude 9000
Route SASIM DCT NOTEL
Aircraft B738/M-SDE2E3FGHIRWXY/LB1

Departure

Time 2026-05-07 20:04
Airport Piarco International Airport (TTPP)

Arrival

Time 2026-05-07 20:19
Airport A.N.R. Robinson International Airport (TTCP)
Time Latitude Longitude Altitude Speed Heading
2026-05-07 19:36 10.60075 -61.34015 66 ft 0 kts 148°
2026-05-07 19:55 10.60078 -61.34017 66 ft 1 kts 147°
2026-05-07 19:55 10.60092 -61.34027 66 ft 3 kts 137°
2026-05-07 19:55 10.60106 -61.34042 66 ft 3 kts 125°
2026-05-07 19:56 10.60117 -61.34060 66 ft 3 kts 117°
2026-05-07 19:56 10.60126 -61.34077 66 ft 3 kts 130°
2026-05-07 19:56 10.60133 -61.34086 66 ft 3 kts 197°
2026-05-07 19:56 10.60129 -61.34091 66 ft 0 kts 237°
2026-05-07 20:00 10.60125 -61.34098 66 ft 4 kts 237°
2026-05-07 20:00 10.60100 -61.34137 66 ft 6 kts 237°
2026-05-07 20:00 10.60083 -61.34160 66 ft 4 kts 232°
2026-05-07 20:01 10.60049 -61.34178 66 ft 8 kts 184°
2026-05-07 20:01 10.59978 -61.34178 66 ft 12 kts 180°
2026-05-07 20:01 10.59908 -61.34178 66 ft 7 kts 180°
2026-05-07 20:01 10.59859 -61.34178 66 ft 9 kts 180°
2026-05-07 20:02 10.59771 -61.34178 66 ft 15 kts 180°
2026-05-07 20:02 10.59706 -61.34241 66 ft 16 kts 267°
2026-05-07 20:02 10.59703 -61.34342 66 ft 11 kts 272°
2026-05-07 20:02 10.59706 -61.34411 66 ft 9 kts 272°
2026-05-07 20:03 10.59704 -61.34477 66 ft 11 kts 257°
2026-05-07 20:03 10.59631 -61.34529 66 ft 16 kts 185°
2026-05-07 20:03 10.59555 -61.34525 66 ft 12 kts 151°
2026-05-07 20:03 10.59535 -61.34323 66 ft 62 kts 90°
2026-05-07 20:04 10.59537 -61.33639 66 ft 130 kts 91°
2026-05-07 20:04 10.59533 -61.32577 340 ft 163 kts 91°
2026-05-07 20:04 10.59564 -61.31438 1264 ft 157 kts 89°
2026-05-07 20:04 10.59611 -61.30304 1945 ft 170 kts 90°
2026-05-07 20:05 10.59645 -61.29012 2375 ft 196 kts 90°
2026-05-07 20:05 10.59658 -61.27533 2705 ft 223 kts 90°
2026-05-07 20:05 10.59660 -61.25891 3366 ft 236 kts 90°
2026-05-07 20:05 10.59657 -61.24176 4081 ft 250 kts 90°
2026-05-07 20:06 10.59659 -61.22379 4860 ft 258 kts 87°
2026-05-07 20:06 10.60228 -61.20647 5713 ft 266 kts 56°
2026-05-07 20:06 10.61655 -61.19411 6160 ft 276 kts 28°
2026-05-07 20:06 10.63436 -61.18768 6361 ft 279 kts 19°
2026-05-07 20:07 10.65303 -61.18147 6196 ft 281 kts 20°
2026-05-07 20:07 10.67152 -61.17534 5995 ft 277 kts 20°
2026-05-07 20:07 10.68955 -61.16936 5962 ft 269 kts 20°
2026-05-07 20:07 10.70717 -61.16353 5958 ft 263 kts 20°
2026-05-07 20:08 10.72453 -61.15779 5958 ft 259 kts 20°
2026-05-07 20:08 10.73587 -61.15403 5963 ft 259 kts 20°
2026-05-07 20:08 10.75878 -61.14644 5971 ft 261 kts 20°
2026-05-07 20:08 10.77614 -61.14069 5973 ft 264 kts 20°
2026-05-07 20:09 10.79361 -61.13491 5974 ft 264 kts 20°
2026-05-07 20:09 10.81102 -61.12915 5974 ft 263 kts 20°
2026-05-07 20:09 10.82843 -61.12339 5976 ft 263 kts 20°
2026-05-07 20:10 10.85747 -61.11378 5978 ft 263 kts 20°
2026-05-07 20:10 10.87489 -61.10803 5979 ft 263 kts 20°
2026-05-07 20:10 10.89238 -61.10224 5849 ft 266 kts 20°
2026-05-07 20:10 10.91002 -61.09641 5675 ft 264 kts 20°
2026-05-07 20:11 10.92726 -61.09071 5499 ft 258 kts 20°
2026-05-07 20:11 10.94436 -61.08505 5240 ft 256 kts 20°
2026-05-07 20:11 10.96103 -61.07954 4967 ft 255 kts 20°
2026-05-07 20:11 10.97788 -61.07396 4682 ft 254 kts 20°
2026-05-07 20:12 10.99466 -61.06840 4396 ft 253 kts 20°
2026-05-07 20:12 11.01083 -61.06304 4116 ft 252 kts 21°
2026-05-07 20:12 11.02744 -61.05754 3847 ft 250 kts 21°
2026-05-07 20:12 11.04382 -61.05211 3695 ft 243 kts 21°
2026-05-07 20:13 11.05946 -61.04693 3562 ft 235 kts 21°
2026-05-07 20:13 11.07466 -61.04189 3457 ft 225 kts 21°
2026-05-07 20:13 11.08925 -61.03706 3323 ft 215 kts 21°
2026-05-07 20:13 11.10321 -61.03243 3196 ft 206 kts 21°
2026-05-07 20:14 11.11664 -61.02798 3081 ft 201 kts 21°
2026-05-07 20:14 11.12984 -61.02361 2972 ft 197 kts 21°
2026-05-07 20:14 11.14289 -61.01928 2867 ft 197 kts 21°
2026-05-07 20:14 11.15495 -61.01307 2745 ft 193 kts 45°
2026-05-07 20:15 11.16173 -61.00170 2631 ft 188 kts 77°
2026-05-07 20:15 11.16248 -60.98865 2545 ft 184 kts 92°
2026-05-07 20:15 11.16133 -60.97600 2432 ft 175 kts 95°
2026-05-07 20:15 11.16013 -60.96402 2319 ft 169 kts 95°
2026-05-07 20:16 11.15896 -60.95216 2119 ft 168 kts 95°
2026-05-07 20:16 11.15781 -60.94043 1930 ft 164 kts 95°
2026-05-07 20:16 11.15677 -60.92893 1739 ft 159 kts 94°
2026-05-07 20:16 11.15593 -60.91813 1638 ft 148 kts 93°
2026-05-07 20:17 11.15516 -60.90773 1440 ft 146 kts 93°
2026-05-07 20:17 11.15439 -60.89720 1203 ft 150 kts 93°
2026-05-07 20:17 11.15361 -60.88655 994 ft 150 kts 92°
2026-05-07 20:17 11.15285 -60.87606 786 ft 146 kts 92°
2026-05-07 20:18 11.15211 -60.86577 590 ft 144 kts 92°
2026-05-07 20:18 11.15140 -60.85590 387 ft 142 kts 92°
2026-05-07 20:18 11.15074 -60.84586 144 ft 139 kts 93°
2026-05-07 20:18 11.14998 -60.83627 11 ft 131 kts 92°
2026-05-07 20:19 11.14950 -60.82925 8 ft 55 kts 94°
2026-05-07 20:19 11.14933 -60.82692 8 ft 11 kts 96°
2026-05-07 20:19 11.14930 -60.82659 8 ft 8 kts 96°
2026-05-07 20:19 11.14921 -60.82568 8 ft 17 kts 96°
2026-05-07 20:20 11.14885 -60.82456 8 ft 14 kts 122°
2026-05-07 20:20 11.14894 -60.82423 8 ft 2 kts 25°
2026-05-07 20:20 11.14909 -60.82444 8 ft 8 kts 273°
2026-05-07 20:20 11.14914 -60.82531 8 ft 16 kts 274°
2026-05-07 20:21 11.14921 -60.82633 8 ft 12 kts 274°
2026-05-07 20:21 11.14926 -60.82697 8 ft 7 kts 274°
2026-05-07 20:21 11.14929 -60.82748 8 ft 9 kts 274°
2026-05-07 20:21 11.14936 -60.82837 8 ft 16 kts 274°
2026-05-07 20:22 11.14946 -60.82972 8 ft 22 kts 275°
2026-05-07 20:22 11.14962 -60.83142 8 ft 26 kts 275°
2026-05-07 20:22 11.14978 -60.83339 8 ft 30 kts 275°
2026-05-07 20:22 11.14997 -60.83542 8 ft 26 kts 274°
2026-05-07 20:23 11.15010 -60.83707 8 ft 24 kts 275°
2026-05-07 20:23 11.15087 -60.83865 8 ft 26 kts 308°
2026-05-07 20:23 11.15114 -60.83998 8 ft 16 kts 286°
2026-05-07 20:23 11.15171 -60.84014 8 ft 2 kts
2026-05-07 20:24 11.15190 -60.84013 8 ft 3 kts
2026-05-07 20:24 11.15194 -60.84013 8 ft 0 kts